Torna al catalogo

SL-8 DEB

AttivoLEO
NORAD 13517·DEBRIS·🇷🇺 Russia

Lanciato Mar 15, 1965 da Baikonur Cosmodrome

Loading…

Prossimi Passaggi (prossime 24 ore)

TLE

AggiornatoSource: Space-Track

Epoca: Sep 14, 2026, 09:52 UTC

1 13517U 65020FF  26257.41131734  .00000688  00000-0  61410-3 0  9993
2 13517  55.5730  23.9984 0521071 287.9310 104.5627 13.44167084148078

Traccia SL-8 DEB in tempo reale con AllMySat

Download on the App Store